Back to catalog

SWARM A

AliveSciencePO
NORAD 39452·PAYLOAD·🇪🇺 EU

Launched Nov 22, 2013 from Plesetsk Cosmodrome

Loading…

Next Passes (next 24 hours)

TLE

FreshSource: CelesTrak SupGP

Epoch: Sep 14, 2026, 00:00 UTC

1 39452C 13067B   26257.00000000  .00009712  00000+0  16923-3 0  2571
2 39452  87.3358  23.2416 0002407 111.6300 154.7793 15.50749622    10

Track SWARM A in real time with AllMySat

Download on the App Store